Hourly Data Report for May 03, 2017

FISHER BRANCH (AUT)
MANITOBA

51°05'00.100" N
97°33'16.200" W
253.00 m
50309J6
71442
WSZ

Download Data

Hourly Data (May 2017)
Hourly Data Report for May 3, 2017
TIME
LST
Temp Definition
°C
Dew Point Definition
°C
Rel Hum Definition
%
Precip. Amount Definition
mm

Wind Dir Definition
10's deg

Wind Spd Definition
km/h
Visibility Definition
km
Stn Press Definition
kPa
Hmdx Definition


Wind Chill Definition


Weather Definition


00:00 7.9 5.2 83 0.0 32 11   98.27     LegendNANA
01:00 6.0 2.8 80 0.0 31 7   98.28     LegendNANA
02:00 4.1 1.5 83 0.0 29 6   98.29     LegendNANA
03:00 3.2 0.9 85 0.0 28 7   98.33     LegendNANA
04:00 2.6 0.6 87 0.0 30 4   98.38     LegendNANA
05:00 1.7 0.7 94 0.0 31 6   98.43     LegendNANA
06:00 2.3 1.1 92 0.0 31 7   98.47     LegendNANA
07:00 5.6 2.6 81 0.0 34 10   98.52     LegendNANA
08:00 7.2 2.5 72 0.0 36 12   98.55     LegendNANA
09:00 9.8 2.4 60 0.0 36 14   98.57     LegendNANA
10:00 11.1 1.8 53 0.0 36 7   98.57     LegendNANA
11:00 13.3 1.3 44 0.0 33 10   98.60     LegendNANA
12:00 14.2 1.1 41 0.0 34 11   98.59     LegendNANA
13:00 14.9 -0.1 36 0.0 1 10   98.57     LegendNANA
14:00 16.6 0.2 33 0.0 30 8   98.55     LegendNANA
15:00 17.6 0.1 31 0.0 30 10   98.51     LegendNANA
16:00 16.8 -1.6 28 0.0 33 14   98.52     LegendNANA
17:00 16.3 -1.2 30 0.0 6 8   98.52     LegendNANA
18:00 16.5 -1.2 30 0.0 36 4   98.51     LegendNANA
19:00 14.4 1.0 40 0.0 2 4   98.56     LegendNANA
20:00 12.9 1.3 45 0.0 1 4   98.61     LegendNANA
21:00 11.0 1.8 53 0.0 1 6   98.66     LegendNANA
22:00 9.9 2.2 59 0.0 30 10   98.71     LegendNANA
23:00 8.8 2.5 65 0.0 34 6   98.70     LegendNANA

Notes on Data Quality.

Legend

  • E = Estimated
  • M = Missing
  • NA = Not Available*
  • [empty] = Indicates an unobserved value
Date modified: